This is the latest recevied weather packets stored in our database for station/object KD9JJA. If no packets are shown the sender has not sent any weather packets the latest 10 day(s).
| Time | Temp. | Humidity | Pressure | Rain* | Wind** | Luminosity | Snow |
|---|---|---|---|---|---|---|---|
| 1777940001 | 23.33° C | 51% | 1005.4 hPa | 0 mm | - | 6 W/m² | - |
| 1777939698 | 23.33° C | 54% | 1005.5 hPa | 0 mm | - | 7 W/m² | - |
| 1777939396 | 23.33° C | 51% | 1005.4 hPa | 0 mm | - | 10 W/m² | - |
| 1777939092 | 23.33° C | 51% | 1005.5 hPa | 0 mm | - | 11 W/m² | - |
| 1777938789 | 23.33° C | 52% | 1005.4 hPa | 0 mm | - | 16 W/m² | - |
| 1777938486 | 23.89° C | 52% | 1005.5 hPa | 0 mm | - | 19 W/m² | - |
| 1777938184 | 23.89° C | 53% | 1005.7 hPa | 0 mm | - | 22 W/m² | - |
| 1777937880 | 23.89° C | 51% | 1005.6 hPa | 0 mm | - | 24 W/m² | - |
| 1777937575 | 23.89° C | 52% | 1005.5 hPa | 0 mm | - | 26 W/m² | - |
| 1777937272 | 23.89° C | 50% | 1005.7 hPa | 0 mm | - | 32 W/m² | - |
| 1777936970 | 23.89° C | 51% | 1005.8 hPa | 0 mm | - | 34 W/m² | - |
| 1777936666 | 23.89° C | 51% | 1005.9 hPa | 0 mm | - | 45 W/m² | - |
| 1777936363 | 23.89° C | 51% | 1006 hPa | 0 mm | - | 62 W/m² | - |
| 1777936059 | 23.89° C | 53% | 1006 hPa | 0 mm | - | 40 W/m² | - |
| 1777935757 | 23.89° C | 54% | 1006.2 hPa | 0 mm | - | 35 W/m² | - |
| 1777935456 | 23.89° C | 53% | 1006.2 hPa | 0 mm | - | 55 W/m² | - |
| 1777935151 | 23.89° C | 55% | 1006.2 hPa | 0 mm | - | 40 W/m² | - |
| 1777934849 | 23.89° C | 52% | 1006.4 hPa | 0 mm | - | 43 W/m² | - |
| 1777934546 | 23.89° C | 54% | 1006.2 hPa | 0 mm | - | 47 W/m² | - |
| 1777934242 | 23.33° C | 55% | 1006.5 hPa | 0 mm | - | 40 W/m² | - |
| 1777933938 | 23.89° C | 55% | 1006.7 hPa | 0 mm | - | 42 W/m² | - |
| 1777933635 | 23.89° C | 52% | 1006.8 hPa | 0 mm | - | 39 W/m² | - |
| 1777933332 | 23.89° C | 52% | 1006.6 hPa | 0 mm | - | 45 W/m² | - |
| 1777933030 | 23.89° C | 52% | 1007 hPa | 0 mm | - | 70 W/m² | - |
| 1777932727 | 23.89° C | 52% | 1007 hPa | 0 mm | - | 74 W/m² | - |
* Rain latest hour (hover to see other rain measurements)
** Current wind speed in m/s (hover to see current wind gust speed)